Flag for Lebanon Weather past 2 weeks in Sidon, Lebanon

Now
55 °F

Passing clouds.


Feels Like: 55 °F
Forecast: 60 / 69 °F
Wind: 3 mph from Southeast

Location: Beirut Airport

Current Time: Jan 30, 2015 at 3:24:10 AM

Latest Report: Jan 30, 2015 at 3:00 AM


Visibility: 5 mi

Pressure: 29.95 "Hg

Humidity: 63%

Dew point: 43 °F

Location of SidonLocation

Historic Weather in Sidon — Graph

°F

Sidon temperature yesterday

Maximum temperature yesterday: 66 °F (at 12:00 PM)
Minimum temperature yesterday: 57 °F (at 12:00 AM)
Average temperature yesterday: 60 °F

Past Weeks' High & Low Weather Summary

 TemperatureHumidityPressure
High72 °F (Jan 24, 2:00 PM)88% (Jan 15, 3:00 AM)30.36 "Hg (Jan 15, 3:00 AM)
Low50 °F (Jan 15, 9:00 AM)19% (Jan 26, 12:00 PM)29.86 "Hg (Jan 28, 5:00 AM)
Average59 °F59%30.13 "Hg
* Reported Jan 15 2:00 AM — Jan 30 2:00 AM, Sidon, Weather by CustomWeather, © 2014

Note: Actual official high and low records may vary slightly from our data, if they occured in-between our weather recording intervals... More about our weather records

Advertising

Sidon weather history for previous 24 hours

 ConditionsComfort  
Time TempWeatherWind HumidityBarometerVisibility
2:00 AM
Jan 30
57 °FPassing clouds.6 mph63%29.95 "Hg5 mi
1:00 AM57 °FPassing clouds.5 mph63%29.95 "Hg5 mi
12:00 AM57 °FPassing clouds.3 mph63%29.98 "Hg5 mi
11:00 PM
Jan 29
57 °FPassing clouds.5 mph63%29.98 "Hg5 mi
10:00 PM57 °FPassing clouds.3 mph67%29.98 "Hg5 mi
9:00 PM57 °FPassing clouds.5 mph67%29.98 "Hg5 mi
8:00 PM59 °FPassing clouds.2 mph72%29.98 "Hg5 mi
7:00 PM59 °FPassing clouds.2 mph68%29.98 "Hg5 mi
6:00 PM59 °FPassing clouds.6 mph68%29.98 "Hg5 mi
5:00 PM61 °FScattered clouds.5 mph63%29.98 "Hg5 mi
4:00 PM64 °FPassing clouds.9 mph56%29.95 "Hg5 mi
3:00 PM66 °FPassing clouds.10 mph52%29.95 "HgN/A
2:00 PM66 °FScattered clouds.10 mph52%29.95 "HgN/A
1:00 PM66 °FPassing clouds.13 mph52%29.98 "HgN/A
12:00 PM66 °FPassing clouds.16 mph49%29.98 "HgN/A
11:00 AM64 °FPassing clouds.13 mph52%30.01 "HgN/A
10:00 AM64 °FPassing clouds.10 mph46%30.01 "HgN/A
9:00 AM64 °FPartly sunny.2 mph46%30.01 "HgN/A
8:00 AM59 °FPartly sunny.No wind48%30.01 "HgN/A
7:00 AM57 °FSunny.3 mph51%29.98 "Hg10 mi
6:00 AM57 °FClear.2 mph51%29.95 "Hg10 mi
5:00 AM57 °FClear.5 mph51%29.95 "Hg10 mi
4:00 AM57 °FClear.3 mph48%29.95 "Hg10 mi
3:00 AM57 °FClear.5 mph44%29.95 "Hg10 mi
Weather by CustomWeather, © 2014

See weather overviewHow to use our weather pages